TimeMDT,TemperatureF,Dew PointF,Humidity,Sea Level PressureIn,VisibilityMPH,Wind Direction,Wind SpeedMPH,Gust SpeedMPH,PrecipitationIn,Events,Conditions,WindDirDegrees,DateUTC
12:53 AM,48.9,46.9,93,29.98,10.0,Calm,Calm,-,N/A,,Partly Cloudy,0,2013-09-16 06:53:00
1:53 AM,48.9,48.0,97,30.03,7.0,Calm,Calm,-,N/A,,Clear,0,2013-09-16 07:53:00
2:33 AM,48.2,46.4,93,30.26,1.5,South,3.5,-,N/A,,Partly Cloudy,170,2013-09-16 08:33:00
2:36 AM,48.2,46.4,93,30.26,0.8,South,3.5,-,N/A,,Mist,190,2013-09-16 08:36:00
2:45 AM,48.2,46.4,93,30.26,1.2,Calm,Calm,-,N/A,,Partly Cloudy,0,2013-09-16 08:45:00
2:50 AM,48.2,46.4,93,30.26,3.0,Calm,Calm,-,N/A,,Partly Cloudy,0,2013-09-16 08:50:00
2:53 AM,48.0,46.9,96,30.02,4.0,Calm,Calm,-,N/A,,Partly Cloudy,0,2013-09-16 08:53:00
3:53 AM,46.9,46.0,97,30.03,8.0,Calm,Calm,-,N/A,,Clear,0,2013-09-16 09:53:00
4:53 AM,46.9,46.0,97,30.03,10.0,Calm,Calm,-,N/A,,Clear,0,2013-09-16 10:53:00
5:04 AM,46.4,46.4,100,30.26,1.5,Calm,Calm,-,N/A,,Clear,0,2013-09-16 11:04:00
5:14 AM,46.4,44.6,93,30.27,4.0,Calm,Calm,-,N/A,,Clear,0,2013-09-16 11:14:00
5:53 AM,45.0,44.1,97,30.03,7.0,Calm,Calm,-,N/A,,Partly Cloudy,0,2013-09-16 11:53:00
6:53 AM,45.0,44.1,97,30.05,8.0,Calm,Calm,-,N/A,,Clear,0,2013-09-16 12:53:00
7:53 AM,48.0,46.9,96,30.09,7.0,Calm,Calm,-,N/A,,Clear,0,2013-09-16 13:53:00
8:53 AM,54.0,48.9,83,30.06,10.0,Calm,Calm,-,N/A,,Clear,0,2013-09-16 14:53:00
9:53 AM,62.1,50.0,65,30.04,10.0,Calm,Calm,-,N/A,,Clear,0,2013-09-16 15:53:00
10:53 AM,64.9,52.0,63,30.04,10.0,Calm,Calm,-,N/A,,Clear,0,2013-09-16 16:53:00
11:53 AM,68.0,48.9,50,30.03,10.0,Calm,Calm,-,N/A,,Clear,0,2013-09-16 17:53:00
12:53 PM,72.0,48.0,43,29.99,10.0,South,6.9,-,N/A,,Clear,170,2013-09-16 18:53:00
1:53 PM,73.0,45.0,37,29.98,10.0,WSW,8.1,-,N/A,,Clear,240,2013-09-16 19:53:00
2:53 PM,77.0,46.0,33,29.94,10.0,North,5.8,-,N/A,,Clear,350,2013-09-16 20:53:00
3:53 PM,75.9,43.0,31,29.91,10.0,Calm,Calm,-,N/A,,Clear,0,2013-09-16 21:53:00
4:53 PM,73.9,50.0,43,29.91,10.0,Variable,6.9,17.3,N/A,,Partly Cloudy,0,2013-09-16 22:53:00
5:53 PM,71.1,48.0,44,29.94,10.0,Variable,5.8,-,N/A,,Clear,0,2013-09-16 23:53:00
6:53 PM,69.1,48.0,47,29.96,10.0,Variable,4.6,-,N/A,,Overcast,0,2013-09-17 00:53:00
7:53 PM,66.9,48.9,52,29.96,10.0,South,11.5,-,N/A,,Overcast,190,2013-09-17 01:53:00
8:53 PM,63.0,50.0,63,29.98,10.0,South,10.4,-,N/A,,Partly Cloudy,190,2013-09-17 02:53:00
9:53 PM,60.1,50.0,69,29.97,10.0,SSE,3.5,-,N/A,,Clear,160,2013-09-17 03:53:00
10:53 PM,57.0,50.0,77,29.98,10.0,Calm,Calm,-,N/A,,Clear,0,2013-09-17 04:53:00
11:53 PM,55.0,51.1,86,29.97,10.0,Calm,Calm,-,N/A,,Clear,0,2013-09-17 05:53:00